350  
FPUS82 KCHS 111327  
OPUCHS  
 
TEST   
..KCHS/KSAV GATEWAY OBSERVATIONS
 
TEST  
NATIONAL WEATHER SERVICE CHARLESTON SC  
800 AM EST SUN DEC 11 2016  
 
NOTE: "FAIR" INDICATES FEW OR NO CLOUDS BELOW 12,000 FEET WITH NO  
SIGNIFICANT WEATHER AND/OR OBSTRUCTIONS TO VISIBILITY.  
 
SCZ050-WAZ558-NCZ071-TXZ119-213-PAZ071-DCZ001-FLZ074-172-MI076-  
NYZ176-178-MAZ016-IL014-TNZ027-NJZ106-GAZ044-MD014-111400-   
..GATEWAY OBSERVATIONS FOR CHARLESTON INTERNATIONAL
 
 
 
CITY SKY/WX TMP DP RH WIND PRES REMARKS  
CHAS AIRPORT MOCLDY 42 30 62 NE8 30.43S  
SEATTLE PTCLDY 40 36 86 S12 29.92F WCI 33  
CHARLOTTE CLOUDY 27 20 75 CALM 30.46S  
DALLAS DFW CLOUDY 50 46 86 S14 29.95F  
DALLAS LOVE CLOUDY 51 47 86 S16 29.97F  
PHILLADELPHIA CLOUDY 30 15 53 CALM 30.58R  
WASH NATIONAL CLOUDY 31 17 56 CALM 30.57R  
BALTIMORE MOCLDY 29 16 58 N3 30.55F  
MIAMI CLOUDY 75 67 76 E15G23 30.19R  
DETROIT LGT SNOW 25 23 92 S8 30.28F FOG WCI 16  
NEWARK CLOUDY 28 17 63 W6 30.55R WCI 22  
LAGUARDIA CLOUDY 31 16 54 NW5 30.55R WCI 26  
J F K CLOUDY 30 16 56 NE3 30.56R  
BOSTON LOGAN PTCLDY 22 13 68 CALM 30.53R  
FT. LAUDERDALE CLOUDY 75 66 73 E21G28 30.18R  
CHICAGO O'HARE LGT SNOW 26 23 88 S14 30.04F FOG WCI 14  
CHICAGO MIDWAY LGT SNOW 27 22 81 S12 30.04F WCI 17  
HOUSTON BUSH LGT RAIN 63 59 87 SE8 30.07F  
HOUSTON HOBBY CLOUDY 66 61 84 S9 30.08R  
NASHVILLE CLOUDY 33 16 49 CALM 30.30R  
ATLANTA CLOUDY 34 24 67 E7 30.38R WCI 28  
 

 
 
GAZ044-118-TXZ119-213-NCZ071-DCZ001-MDZ014-506-PAZ021-071-NJZ106-  
NYZ176-178-MAZ106-OHZ011-021-055-MIZ076-KYZ091-ILZ014-INZ047-  
MNZ060-111400-   
..GATEWAY OBSERVATIONS FOR SAVANNAH INTERNATIONAL
 
 
 
CITY SKY/WX TMP DP RH WIND PRES REMARKS  
SAVANNAH ARPT PTCLDY 42 31 64 N7 30.40R  
ATLANTA CLOUDY 34 24 67 E7 30.38R WCI 28  
CHARLOTTE CLOUDY 27 20 75 CALM 30.46S  
DALLAS DFW CLOUDY 50 46 86 S14 29.95F  
HOUSTON BUSH LGT RAIN 63 59 87 SE8 30.07F  
WASH NATIONAL CLOUDY 31 17 56 CALM 30.57R  
WASH DULLES MOCLDY 26 16 65 CALM 30.55R  
BALTIMORE MOCLDY 29 16 58 N3 30.55F  
PHILADELPHIA CLOUDY 30 15 53 CALM 30.58R  
NEWARK CLOUDY 28 17 63 W6 30.55R WCI 22  
LAGUARDIA CLOUDY 31 16 54 NW5 30.55R WCI 26  
J F K CLOUDY 30 16 56 NE3 30.56R  
BOSTON PTCLDY 22 13 68 CALM 30.53R  
PITTSBURG LGT SNOW 24 21 88 SE7 30.36F FOG WCI 16  
AKRON CLOUDY 23 19 85 S9 30.32F FOG WCI 13  
CLEVELAND CLOUDY 25 20 81 S9 30.35F WCI 15  
CINCINNATI CLOUDY 30 18 60 SE13 30.25F WCI 20  
COLUMBUS N/A 26 21 82 E5 30.32F WCI 20  
DETROIT LGT SNOW 25 23 92 S8 30.28F FOG WCI 16  
CHICAGO O'HARE LGT SNOW 26 23 88 S14 30.04F FOG WCI 14  
MINNEAPOLIS LGT SNOW 17 13 84 NE8 29.97S VSB 3/4 WCI 7  
INDIANAPOLIS CLOUDY 30 19 63 SE14 30.15F WCI 19  
 

 
 
 
CLICK HERE TO GO TO PREVIOUS BULLETINS.

The Nexlab SC Page
The Nexlab GA Page Main Text Page